{"data":{"norad_id":56202,"epoch":"2026-05-25T05:22:23.733120Z","epoch_age_seconds":59664,"freshness":"FRESH","line1":"1 56202U 23054AA  26145.22388580  .00029787  00000+0  56761-3 0  9993","line2":"2 56202  97.3077  55.3301 0014360 134.9896 225.2521 15.48027715174956","mean_motion":15.48027715,"eccentricity":0.001436,"inclination_deg":97.3077,"raan_deg":55.3301,"arg_perigee_deg":134.9896,"mean_anomaly_deg":225.2521,"bstar":0.00056761,"rev_number":17495,"period_min":93.021590378955,"perigee_km":412.73052463557,"apogee_km":432.2619432835,"semimajor_km":6800.6332339595,"source":"CELESTRAK","updated_at":"2026-05-25T13:37:59.399104Z"}}